STARLINK-35262, 65847

Orbit data source: Space-Track

STARLINK-35262, 65847 is a payload satellite owned by SpaceX/Seattle (US) in LEO that was launched on Mon, 29 Sep 2025 UTC via an FALCON 9 launch vehicle from the Air Force Western Test Range (AFWTR). Payload-class satellites include a variety of spacecraft equipped with specific instruments for various scientific and technological missions. These include communications satellites like Starlink; space stations such as the ISS; scientific satellites like the Hubble; Earth observation satellites from companies like Planet Labs, Umbra, and HawkEye 360; GPS; miniature CubeSats for education and research; and military/defense satellites.

Loading next visibility...
Identifier
65847, 2025-221AA
Orbit
LEO
Country
Flag of USUS
Related business
Manufacturer
SpaceX/Seattle
Mission
Operational Commercial Communications
Bus & Motor
STARLINK V2MO, Unknown motor
Mass
575 kg wet, ~530 kg dry
Launch date (UTC)
2025-09-29 (2 months ago)
Launch vehicle
FALCON 9
Launch site
Air Force Western Test Range (AFWTR)
Object type
Payload
Rocket body
Debris
Shape & HBR
Box + 2 Pan, 17.7 m
Radar Cross Section
36.964 m²

Expand to show TLE details & history
Last TLE update: 9 hours ago

TLE from 9 hours ago
0 STARLINK-35262
1 65847U 25221AA  25340.92117049  .00043637  00000-0  14766-2 0  9998
2 65847  53.1585 159.6991 0000997  81.4760 278.6354 15.30204873 11875
Epoch: 2025-12-06T22:06Z
TLE epoch observation values (Epoch: 2025-12-06T22:06:29.130Z)
Latitude
0.00001°
Longitude
112.13576°
Altitude
475.998 km
Speed
7.629 km/s
True Right ascension
10h 38m 47s
True Declination
0° 00' 00"
Sunlit
Object was in daylight at epoch
Visualization orbit readout
Latitude
Unknown
Longitude
Unknown
Altitude
Unknown
Speed
Unknown
Apparent Right ascension
Unknown
Apparent Declination
Unknown
Sunlit
N/A
Visualization observer readout
Local Sidereal Time
05:38:11
Azimuth
Unknown
Elevation
Unknown
Doppler factor
Unknown
Orbital elements
Apogee altitude
476.14 km
Perigee altitude
474.774 km
Semi-major axis
6,853.594 km
Eccentricity
0.0001
Inclination
53.1585°
RAAN
159.6991°
Arg. of periapsis
81.476°
True anomaly
278.6241°
Mean anomaly
278.6354°
Eccentric anomaly
278.62975°
Mean motion
3.8253 °/min
Orbital period
94.11 mins
BSTAR
0.0014766
Loading maneuver chart data...
Computing Atmospheric mass density...
Loading historical data...
Loading historical data...
Loading historical data...
Loading historical data...
Loading historical data...
Loading historical data...
Loading historical data...

Documentation

Showing up to 5 results
|